User: anonymous   Login
Location: Theydon Bois
(51.6750°N, 0.1050°E)
Time: 06:14:23
(UTC+01:00)
Language:

SL-27 R/B - Orbit

View from above orbital plane
View from above orbital plane
View from above satellite
View from above satellite

Ground track
Ground track

The orbit data is extracted from the following two-line orbital elements,

1 40354U 14084B   18108.83591894  .00000964  00000-0  25740-4 0  9999
2 40354  74.7394 222.2107 0037650  90.2649 270.2877 15.38962331186862
Epoch (UTC): 18 April 2018 20:03:43
Eccentricity: 0.0037650
inclination: 74.7394°
perigee height: 423 km
apogee height: 475 km
right ascension of ascending node: 222.2107°
argument of perigee: 90.2649°
revolutions per day: 15.38962331
mean anomaly at epoch: 270.2877°
orbit number at epoch: 18686

The dashed part of the orbit path shows where the satellite is in the earth's shadow,  

DLR